Home   Weather   Taipei   Past weeks
Flag for Taiwan

Past Weather in Taipei, Taiwan — Yesterday and Last 2 Weeks

Now
73 °F

Light rain. Partly sunny.


Feels Like: 72 °F
Forecast: 75 / 72 °F
Wind: 6 mph from Southeast

Location: Sungshan / Taipei

Current Time: Oct 16, 2019 at 6:04:28 pm

Latest Report: Oct 16, 2019 at 5:00 pm


Visibility: N/A

Pressure: 30.04 "Hg

Humidity: 89%

Dew Point: 70 °F

Location of TaipeiLocation

Past Weather in Taipei — Graph

°F

Taipei Temperature Yesterday

Maximum temperature yesterday: 81 °F (at 9:05 am)
Minimum temperature yesterday: 73 °F (at 12:07 am)
Average temperature yesterday: 76 °F

High & Low Weather Summary for the Past Weeks

 TemperatureHumidityPressure
High95 °F (Oct 2, 11:00 am)94% (Oct 3, 1:00 am)30.21 "Hg (Oct 3, 1:00 am)
Low72 °F (Oct 10, 3:00 am)49% (Oct 2, 10:00 am)29.71 "Hg (Oct 1, 4:00 pm)
Average81 °F72%29.96 "Hg
* Reported Oct 1 4:00 pm — Oct 16 4:30 pm, Taipei. Weather by CustomWeather, © 2019

Note: Actual official high and low records may vary slightly from our data, if they occured in-between our weather recording intervals... More about our weather records

Advertising

Taipei Weather History for the Previous 24 Hours

Scroll right to see more
 ConditionsComfort  
Time TempWeatherWind HumidityBarometerVisibility
4:30 pm
Wed, Oct 16
73 °FLight rain. Partly sunny.7 mph83%30.04 "HgN/A
4:10 pm77 °FLight rain. Partly sunny.9 mph74%30.04 "HgN/A
4:00 pm77 °FPartly sunny.7 mph74%30.04 "HgN/A
3:30 pm77 °FPartly sunny.5 mph74%30.04 "HgN/A
3:00 pm77 °FPartly sunny.9 mph74%30.04 "HgN/A
2:30 pm77 °FPartly sunny.6 mph74%30.04 "HgN/A
2:00 pm75 °FPartly sunny.9 mph78%30.04 "HgN/A
1:30 pm77 °FPartly sunny.9 mph74%30.07 "HgN/A
1:00 pm75 °FScattered showers. Partly sunny.9 mph78%30.07 "HgN/A
12:36 pm75 °FScattered showers. Partly sunny.10 mph78%30.07 "HgN/A
12:00 pm73 °FLight rain. Partly sunny.8 mph83%30.09 "HgN/A
11:30 am73 °FLight rain. Partly sunny.10 mph83%30.09 "HgN/A
11:17 am77 °FLight rain. Partly sunny.13 mph74%30.09 "HgN/A
11:00 am75 °FScattered showers. Partly sunny.7 mph78%30.09 "HgN/A
10:30 am73 °FScattered showers. Partly sunny.8 mph78%30.12 "HgN/A
10:00 am73 °FScattered showers. Broken clouds.7 mph78%30.15 "HgN/A
9:30 am73 °FScattered showers. Partly sunny.7 mph78%30.15 "HgN/A
9:00 am73 °FScattered showers. Partly sunny.7 mph74%30.15 "HgN/A
8:30 am73 °FPartly sunny.7 mph74%30.15 "HgN/A
8:00 am73 °FPartly sunny.8 mph74%30.15 "HgN/A
7:30 am75 °FBroken clouds.8 mph65%30.12 "HgN/A
7:00 am73 °FPartly sunny.8 mph69%30.12 "HgN/A
6:30 am73 °FPartly sunny.10 mph65%30.12 "HgN/A
6:00 am73 °FBroken clouds.9 mph69%30.12 "HgN/A
5:00 am73 °FPassing clouds.10 mph69%30.12 "HgN/A
4:00 am73 °FPartly cloudy.6 mph69%30.12 "HgN/A
3:00 am72 °FPassing clouds.6 mph73%30.12 "HgN/A
2:00 am73 °FScattered showers. Passing clouds.12 mph69%30.15 "HgN/A
1:00 am73 °FPartly cloudy.9 mph69%30.15 "HgN/A
12:00 am73 °FPartly cloudy.10 mph69%30.15 "HgN/A
11:30 pm
Tue, Oct 15
73 °FLight rain. Partly cloudy.8 mph69%30.18 "HgN/A
11:04 pm73 °FLight rain. Partly cloudy.10 mph69%30.18 "HgN/A
10:30 pm75 °FScattered showers. Passing clouds.10 mph65%30.18 "HgN/A
10:00 pm75 °FLight rain. Partly cloudy.9 mph65%30.18 "HgN/A
9:58 pm73 °FLight rain. Partly cloudy.8 mph69%30.18 "HgN/A
9:30 pm75 °FScattered showers. Partly cloudy.10 mph61%30.18 "HgN/A
9:00 pm75 °FPassing clouds.12 mph61%30.18 "HgN/A
8:30 pm75 °FScattered showers. Partly cloudy.10 mph61%30.18 "HgN/A
8:00 pm75 °FPartly cloudy.8 mph65%30.18 "HgN/A
7:30 pm75 °FPartly cloudy.12 mph65%30.18 "HgN/A
7:00 pm75 °FPassing clouds.9 mph65%30.18 "HgN/A
6:30 pm73 °FPassing clouds.12 mph69%30.15 "HgN/A
6:00 pm73 °FPassing clouds.6 mph74%30.15 "HgN/A
Weather by CustomWeather, © 2019

See weather overview